Tracking 29892 objects as of 21-Nov-2024
HD Live streaming from Space Station
objects crossing your sky now

STARLINK-32079

Track STARLINK-32079 now!
10-day predictions
STARLINK-32079 is classified as:


NORAD ID: 60336
Int'l Code: 2024-136H
Perigee: 481.5 km
Apogee: 483.2 km
Inclination: 53.2 °
Period: 94.1 minutes
Semi major axis: 6853 km
RCS: Unknown
Launch date: August 2, 2024
Source: United States (US)
Launch site: AIR FORCE EASTERN TEST RANGE (AFETR)
Your satellite tracking list
Your tracking list is empty




NASA's NSSDC Master Catalog

Two Line Element Set (TLE):
1 60336U 24136H   24325.44225331  .00000077  00000-0  14742-4 0  9990
2 60336  53.1594 118.6016 0001190  69.1158 290.9970 15.30199063 17057
Source of the keplerian elements: AFSPC